Location: Dana
(41.8364°N, 106.7042°W)
Time: 12:09:33
(UTC+00:00)

Injun/Solrad 3 - Pass Details

Date: 16 May 2026
Orbit: 867 x 989 km, 66.8° (Epoch: 11 June)

Event Time Altitude Azimuth Distance (km) Brightness Sun altitude
Rises 05:40:28 0° 336° (NNW) 3,673 12.4 -26.1°
Reaches altitude 10° 05:43:42 10° 352° (N) 2,737 11.3 -26.3°
Maximum altitude 05:48:34 22° 41° (NE) 2,011 9.9 -26.7°
Enters shadow 05:52:38 13° 85° (E) 2,549 10.0 -26.9°
Drops below altitude 10° 05:53:26 10° 90° (E) 2,748 - -26.9°
Sets 05:56:39 0° 106° (ESE) 3,691 - -27.1°
